103P/Hartley 2 (2010)

Japanese version
Home page
Updated on February 4, 2013

---------------------------------------------------------------------

* Profile

* Pictures

* Orbital Elements

Epoch 2010 Oct. 11.0 TT = JDT 2455480.5
T 2010 Oct. 28.25936 TT                                 MPC
q   1.0586789            (2000.0)            P               Q
n   0.15231602     Peri.  181.20105     +0.75553440     -0.63756647
a   3.4724739      Node   219.75981     +0.60299681     +0.76665586
e   0.6951226      Incl.   13.61826     +0.25605198     +0.07581414
P   6.47
From 3810 observations 1997 May 2-2010 Nov. 23, mean residual 0".60.  Non-
   gravitational parameters A1 = +0.23 +/- 0.00, A2 = +0.0284 +/- 0.0001.

* Finding Charts

* Magnitudes Graph

        H = 16.8  G = 0.15                        [    ,-360]  (             - 2009 Nov.  2)
        m1 =  8.7 + 5 log d + 20.0 log r(t - 20)  [-360, 120]  (2009 Nov.  2 - 2011 Feb. 25)
        m1 = 10.5 + 5 log d + 10.0 log r          [ 120,    ]  (2011 Feb. 25 -             )

---------------------------------------------------------------------

The orbital elements are published on M.P.E.C. 2010-W22.
The charts are made with StellaNavigator Ver.2.0 for Windows (AstroArts / ASCII).
The magnitudes graphs are made with Comet for Windows.

---------------------------------------------------------------------

Copyright(C) Seiichi Yoshida (comet@aerith.net). All rights reserved.